FW3671 Weather Reports


time (UTC)temp
F
wind
direction
speed
knots
gust
knots
rain 1hr
in
rain 24hr
in
rain mn
in
humidity
%
barometer
mb
20260505070548 54 145 9.6 15.6 0.00 0.00 0.00 67 1010.0
20260505070044 54 151 17.4 17.4 0.00 0.00 0.00 66 1010.1
20260505065540 54 145 9.6 22.6 0.00 0.00 0.00 66 1010.3
20260505065037 55 141 13.9 22.6 0.00 0.00 0.00 65 1010.3
20260505064534 55 150 14.8 19.1 0.00 0.00 0.00 66 1010.4
20260505064033 55 142 13.0 20.0 0.00 0.00 0.00 66 1010.4
20260505063529 55 164 10.4 20.0 0.00 0.00 0.00 66 1010.5
20260505063025 55 149 10.4 17.4 0.00 0.00 0.00 67 1010.4
20260505062522 55 152 12.2 21.7 0.00 0.00 0.00 67 1010.8
20260505062020 55 135 7.8 14.8 0.00 0.00 0.00 67 1010.5
20260505061517 55 136 12.2 17.4 0.00 0.00 0.00 67 1010.8
20260505061015 55 131 10.4 14.8 0.00 0.00 0.00 67 1010.5
20260505060512 55 117 12.2 21.7 0.00 0.00 0.00 67 1010.5
20260505060008 55 130 10.4 14.8 0.00 0.00 0.00 68 1010.7
20260505055504 55 156 10.4 14.8 0.00 0.00 0.00 67 1010.7
20260505055001 55 151 13.0 18.2 0.00 0.00 0.00 67 1010.4
20260505054458 55 128 10.4 16.5 0.00 0.00 0.00 66 1010.5
20260505053956 55 124 6.1 20.9 0.00 0.00 0.00 65 1010.5
20260505053453 55 158 6.1 18.2 0.00 0.00 0.00 64 1010.5
20260505052949 55 130 9.6 20.0 0.00 0.00 0.00 63 1010.8
20260505052447 55 134 16.5 18.2 0.00 0.00 0.00 62 1010.8
20260505051944 55 143 13.9 18.2 0.00 0.00 0.00 63 1010.7
20260505051440 56 131 14.8 21.7 0.00 0.00 0.00 63 1010.4
20260505050939 56 153 18.2 21.7 0.00 0.00 0.00 62 1010.7
20260505050437 56 136 11.3 21.7 0.00 0.00 0.00 61 1010.4
20260505041405 58 167 8.7 23.5 0.00 0.00 0.00 61 1009.7
20260505040901 58 143 18.2 23.5 0.00 0.00 0.00 58 1009.4
20260505040359 59 159 10.4 21.7 0.00 0.00 0.00 55 1009.6
20260505035855 59 139 22.6 30.4 0.00 0.00 0.00 53 1009.2
20260505035351 60 153 13.0 20.0 0.00 0.00 0.00 51 1009.0
20260505034849 60 148 9.6 16.5 0.00 0.00 0.00 48 1009.0
20260505034345 61 133 16.5 21.7 0.00 0.00 0.00 47 1008.9
20260505033842 61 185 9.6 20.0 0.00 0.00 0.00 45 1008.8
20260505033339 61 189 10.4 17.4 0.00 0.00 0.00 47 1008.8
20260505032837 62 160 9.6 15.6 0.00 0.00 0.00 47 1008.7
20260505032334 62 160 12.2 15.6 0.00 0.00 0.00 40 1008.6
20260505031831 63 154 12.2 13.0 0.00 0.00 0.00 38 1008.5
20260505031327 63 147 8.7 13.9 0.00 0.00 0.00 37 1008.2
20260505030825 63 150 9.6 13.9 0.00 0.00 0.00 39 1008.2
20260505030321 63 162 7.8 12.2 0.00 0.00 0.00 39 1008.3
20260505025816 63 157 5.2 9.6 0.00 0.00 0.00 39 1008.3
20260505025314 63 161 3.5 7.0 0.00 0.00 0.00 39 1008.1
20260505024812 63 169 6.1 7.0 0.00 0.00 0.00 39 1008.0
20260505024310 63 168 3.5 6.1 0.00 0.00 0.00 39 1008.1
20260505023807 63 180 4.3 9.6 0.00 0.00 0.00 39 1008.2
20260505023303 63 147 3.5 7.8 0.00 0.00 0.00 38 1008.1
20260505022801 64 133 2.6 5.2 0.00 0.00 0.00 38 1008.1
20260505022258 64 150 4.3 9.6 0.00 0.00 0.00 37 1007.9
20260505021755 64 151 4.3 10.4 0.00 0.00 0.00 37 1008.1
20260505021251 64 166 7.8 11.3 0.00 0.00 0.00 38 1007.9
20260505020747 64 164 10.4 12.2 0.00 0.00 0.00 37 1008.0
20260505020242 64 154 3.5 7.0 0.00 0.00 0.00 37 1008.0
20260505015740 64 140 4.3 7.8 0.00 0.00 0.00 37 1007.9
20260505015237 64 160 5.2 7.8 0.00 0.00 0.00 37 1008.0
20260505014734 65 177 4.3 7.0 0.00 0.00 0.00 37 1007.8
20260505014231 65 157 5.2 8.7 0.00 0.00 0.00 37 1008.0
20260505013728 65 195 7.0 8.7 0.00 0.00 0.00 37 1008.0
20260505013225 65 165 8.7 11.3 0.00 0.00 0.00 36 1008.0
20260505012723 66 158 9.6 12.2 0.00 0.00 0.00 36 1008.2
20260505012220 65 182 6.1 12.2 0.00 0.00 0.00 37 1008.0
20260505011716 65 147 4.3 17.4 0.00 0.00 0.00 36 1008.0
20260505011214 65 160 11.3 17.4 0.00 0.00 0.00 36 1008.1
20260505010708 66 150 9.6 13.9 0.00 0.00 0.00 36 1008.2
20260505010205 66 142 7.8 17.4 0.00 0.00 0.00 35 1008.3
20260505005701 68 132 10.4 17.4 0.00 0.00 0.00 33 1008.1
20260505005159 68 175 6.1 9.6 0.00 0.00 0.00 31 1008.3
20260505004656 68 141 2.6 3.5 0.00 0.00 0.00 30 1008.2
20260505004152 69 121 0.0 1.7 0.00 0.00 0.00 30 1008.0
20260505003649 70 19 0.0 0.9 0.00 0.00 0.00 27 1008.1
20260505003147 72 204 0.0 2.6 0.00 0.00 0.00 27 1008.1
20260505002643 73 227 2.6 3.5 0.00 0.00 0.00 28 1008.1
20260505002141 72 267 3.5 5.2 0.00 0.00 0.00 30 1008.2
20260505001638 70 18 1.7 1.7 0.00 0.00 0.00 30 1008.5
20260505001136 69 225 2.6 3.5 0.00 0.00 0.00 30 1008.5
20260505000632 68 276 6.1 7.0 0.00 0.00 0.00 31 1008.5
20260505000131 68 289 9.6 9.6 0.00 0.00 0.00 31 1008.3
20260504235626 69 336 9.6 11.3 0.00 0.00 0.00 30 1008.6
20260504235123 70 7 1.7 5.2 0.00 0.00 0.00 29 1008.2
20260504234620 71 345 3.5 4.3 0.00 0.00 0.00 28 1008.3
20260504234118 73 347 6.1 9.6 0.00 0.00 0.00 27 1008.6
20260504233613 73 0 6.1 9.6 0.00 0.00 0.00 28 1008.5
20260504233109 72 351 9.6 12.2 0.00 0.00 0.00 27 1008.5
20260504232607 72 298 7.0 13.9 0.00 0.00 0.00 26 1008.5
20260504232104 72 359 7.0 13.0 0.00 0.00 0.00 28 1008.3
20260504231601 71 352 7.8 8.7 0.00 0.00 0.00 28 1008.2
20260504231056 71 354 7.0 9.6 0.00 0.00 0.00 28 1008.5
20260504230553 72 301 1.7 6.1 0.00 0.00 0.00 28 1008.3
20260504230052 74 326 4.3 11.3 0.00 0.00 0.00 25 1008.3
20260504225549 73 292 1.7 7.8 0.00 0.00 0.00 27 1008.2
20260504225046 73 328 7.8 9.6 0.00 0.00 0.00 27 1008.6
20260504224543 74 335 7.0 11.3 0.00 0.00 0.00 28 1008.6
20260504224040 73 347 6.1 7.0 0.00 0.00 0.00 26 1009.0
20260504223537 73 358 7.0 11.3 0.00 0.00 0.00 27 1008.7
20260504223032 73 323 7.0 7.8 0.00 0.00 0.00 28 1008.7
20260504222529 72 343 7.8 12.2 0.00 0.00 0.00 30 1008.6
20260504222027 71 349 5.2 16.5 0.00 0.00 0.00 30 1008.7
20260504221524 69 333 1.7 13.9 0.00 0.00 0.00 33 1008.9
20260504221021 69 325 11.3 14.8 0.00 0.00 0.00 33 1008.9
20260504220517 69 12 7.0 11.3 0.00 0.00 0.00 33 1009.0
20260504220014 68 332 5.2 9.6 0.00 0.00 0.00 35 1008.9
20260504215510 67 312 1.7 11.3 0.00 0.00 0.00 37 1009.0
20260504215008 67 356 8.7 8.7 0.00 0.00 0.00 39 1009.3
20260504214504 66 319 3.5 7.0 0.00 0.00 0.00 37 1009.2
20260504214000 66 279 6.1 10.4 0.00 0.00 0.00 35 1009.4
20260504213456 66 320 3.5 6.1 0.00 0.00 0.00 35 1009.0
20260504212954 67 265 4.3 9.6 0.00 0.00 0.00 33 1009.3
20260504212450 67 261 7.8 11.3 0.00 0.00 0.00 33 1008.9
20260504211948 67 256 3.5 13.0 0.00 0.00 0.00 34 1008.9
20260504211444 68 260 13.0 14.8 0.00 0.00 0.00 33 1009.0
20260504210942 68 267 7.0 15.6 0.00 0.00 0.00 33 1008.9
20260504210438 69 245 9.6 14.8 0.00 0.00 0.00 31 1009.3
20260504205935 69 271 4.3 7.8 0.00 0.00 0.00 32 1009.2
20260504205433 69 256 7.8 8.7 0.00 0.00 0.00 31 1008.9
20260504204931 69 269 7.8 11.3 0.00 0.00 0.00 30 1008.8
20260504204429 69 304 4.3 8.7 0.00 0.00 0.00 30 1008.9
20260504203928 70 304 7.0 9.6 0.00 0.00 0.00 28 1008.9
20260504203425 70 328 2.6 7.0 0.00 0.00 0.00 29 1008.9
20260504202921 71 305 2.6 3.5 0.00 0.00 0.00 28 1008.8
20260504202418 71 268 5.2 9.6 0.00 0.00 0.00 28 1008.9
20260504201914 72 288 5.2 6.1 0.00 0.00 0.00 27 1009.0
20260504201412 73 21 4.3 9.6 0.00 0.00 0.00 27 1008.8
20260504200909 75 322 3.5 7.0 0.00 0.00 0.00 25 1009.2
20260504200406 75 323 1.7 5.2 0.00 0.00 0.00 26 1009.0
20260504195903 74 181 3.5 8.7 0.00 0.00 0.00 26 1008.9
20260504195358 76 134 2.6 7.0 0.00 0.00 0.00 24 1009.3
20260504194855 79 195 2.6 9.6 0.00 0.00 0.00 23 1009.3
20260504194350 78 217 6.1 10.4 0.00 0.00 0.00 27 1009.4
20260504193847 77 265 7.8 7.8 0.00 0.00 0.00 25 1009.3
20260504193344 77 71 4.3 7.0 0.00 0.00 0.00 27 1009.5
20260504192843 77 114 3.5 7.8 0.00 0.00 0.00 25 1009.6
20260504192340 76 199 7.8 8.7 0.00 0.00 0.00 26 1009.6
20260504191838 77 167 5.2 10.4 0.00 0.00 0.00 25 1009.5
20260504191336 77 198 5.2 5.2 0.00 0.00 0.00 25 1009.7
20260504190831 76 223 5.2 8.7 0.00 0.00 0.00 26 1009.7
20260504190327 74 97 0.9 7.8 0.00 0.00 0.00 27 1009.8
20260504185824 74 186 3.5 7.0 0.00 0.00 0.00 28 1010.1
20260504185321 75 212 5.2 14.8 0.00 0.00 0.00 25 1009.7
20260504184817 75 227 5.2 9.6 0.00 0.00 0.00 28 1010.0
20260504184313 74 186 7.8 9.6 0.00 0.00 0.00 28 1010.0
20260504183809 73 109 5.2 13.9 0.00 0.00 0.00 26 1010.1
20260504183306 74 13 1.7 9.6 0.00 0.00 0.00 30 1010.1
20260504182804 73 209 7.0 9.6 0.00 0.00 0.00 29 1010.4
20260504182301 72 153 9.6 13.0 0.00 0.00 0.00 27 1010.2
20260504181759 73 120 10.4 13.9 0.00 0.00 0.00 27 1010.3
20260504181256 73 141 7.0 10.4 0.00 0.00 0.00 28 1010.7
20260504180755 73 155 10.4 11.3 0.00 0.00 0.00 27 1010.4
20260504180253 73 107 5.2 8.7 0.00 0.00 0.00 27 1010.7
20260504175750 73 171 3.5 9.6 0.00 0.00 0.00 28 1010.5
20260504175247 72 174 3.5 9.6 0.00 0.00 0.00 27 1010.7
20260504174745 71 184 5.2 12.2 0.00 0.00 0.00 28 1010.7
20260504174243 72 146 2.6 8.7 0.00 0.00 0.00 29 1010.7
20260504173739 71 172 7.8 13.0 0.00 0.00 0.00 29 1010.9
20260504173236 71 190 3.5 10.4 0.00 0.00 0.00 30 1011.0
20260504172733 72 164 10.4 12.2 0.00 0.00 0.00 31 1010.7
20260504172229 71 178 4.3 13.0 0.00 0.00 0.00 31 1010.9
20260504171726 70 190 3.5 9.6 0.00 0.00 0.00 31 1011.1
20260504171223 70 167 2.6 12.2 0.00 0.00 0.00 30 1011.0
20260504170719 69 146 7.8 12.2 0.00 0.00 0.00 31 1011.0
20260504170217 69 161 5.2 16.5 0.00 0.00 0.00 32 1011.0
20260504160135 68 137 5.2 8.7 0.00 0.00 0.00 34 1011.0
20260504151103 61 166 7.0 13.0 0.00 0.00 0.00 41 1011.4
20260504150600 61 160 8.7 17.4 0.00 0.00 0.00 42 1011.6
20260504141026 61 146 7.8 13.9 0.00 0.00 0.00 40 1011.5
20260504140522 61 151 9.6 12.2 0.00 0.00 0.00 39 1011.1
20260504130447 60 167 5.2 14.8 0.00 0.00 0.00 39 1011.2
20260504110334 60 151 8.7 14.8 0.00 0.00 0.00 38 1011.6
20260504100251 60 148 13.0 16.5 0.00 0.00 0.00 34 1011.4
20260504081645 59 157 8.7 14.8 0.00 0.00 0.00 33 1011.0
20260504081141 59 160 11.3 23.5 0.00 0.00 0.00 32 1011.1
20260504080637 59 145 10.4 19.1 0.00 0.00 0.00 33 1011.2
20260504080134 59 144 15.6 20.0 0.00 0.00 0.00 33 1011.1